• Processing (Info)

  • MPEC 2021-F95 : 2016 JP15

    The following Minor Planet Electronic Circular may be linked-to from your own Web pages, but must not otherwise be redistributed electronically.

    A form allowing access to any MPEC is at the bottom of this page.


    Read MPEC 2021-F94 Read MPEC 2021-F96


    M.P.E.C. 2021-F95                                Issued 2021 March 23, 14:01 UT
    
         The Minor Planet Electronic Circulars contain information on unusual
             minor planets and routine data on comets.  They are published
        on behalf of Division F of the International Astronomical Union by the
              Minor Planet Center, Smithsonian Astrophysical Observatory,
                              Cambridge, MA 02138, U.S.A.
    
                 Prepared using the Tamkin Foundation Computer Network
    
                                  MPC@CFA.HARVARD.EDU
                URL https://www.minorplanetcenter.net/    ISSN 1523-6714
    
                                    2016 JP15                                
    
    
                               Revision to MPEC 2016-J79                            
    
    Additional Observations:
         K16J15P  C2015 06 03.28241811 27 13.589+23 41 31.11         22.10GVEF095F51
         K16J15P  C2016 04 02.49633717 01 12.043+08 38 11.95         22.15GVEF095F51
         K16J15P  C2016 04 02.50817817 01 11.342+08 38 16.54         22.03GVEF095F51
         K16J15P  C2016 04 02.52006817 01 10.647+08 38 21.42         22.15GVEF095F51
         K16J15P  C2016 04 02.53197117 01 09.924+08 38 26.14         22.28GVEF095F51
         K16J15P  C2016 04 02.59099217 01 06.370+08 38 49.70         21.33GVEF095F51
         K16J15P  C2016 04 02.60145517 01 05.761+08 38 54.00         21.69GVEF095F51
         K16J15P  C2016 04 02.61192117 01 05.118+08 38 58.25         21.57GVEF095F51
         K16J15P ZC2021 03 11.51762616 57 06.585+27 08 34.92         21.1 GVEF095G96
         K16J15P ZC2021 03 11.52848216 57 05.772+27 08 47.84         20.9 GVEF095G96
         K16J15P  C2021 03 22.45246616 37 59.63 +30 46 53.9          22.42GVEF095V00
         K16J15P  C2021 03 22.45736016 37 58.92 +30 46 59.8          21.83GVEF095V00
         K16J15P  C2021 03 22.46221916 37 58.21 +30 47 05.5          22.05GVEF095V00
         K16J15P  C2021 03 22.46709616 37 57.51 +30 47 11.6          21.78GVEF095V00
    
    Observer details:
    F51 Pan-STARRS 1, Haleakala.  Observers J. Bulger, K. Chambers, T. Lowe, A.
        Schultz, I. Smith.  Measurers S. Chastel, M. Huber, Y. Ramanjooloo, R.
        Wainscoat, R. Weryk.  1.8-m Ritchey-Chretien + CCD.
    G96 Mt. Lemmon Survey.  Observer D. C. Fuls.  Measurers M. Micheli, B. Gray.
        1.5-m reflector + CCD.
    V00 Kitt Peak-Bok.  Observer H. Groeller.  Measurers M. J. Brucker, E. J.
        Christensen, C. E. Woodward, G. A. Farneth, D. C. Fuls, A. R. Gibbs, A. D.
        Grauer, H. Groeller, R. A. Kowalski, S. M. Larson, G. J. Leonard, R. S.
        McMillan, T. A. Pruyne, D. Rankin, R. L. Seaman, F. C. Shelly, K. W.
        Wierzchos.  2.25-m reflector + CCD.
    
    First and last observations above in comparison with prediction:
    Residuals in seconds of arc, reference and Delta-T
    150603 F51  5.2-  1.9-    210322 V00  6.2- 12.9-    MPO382823   -0.00 days
    
    Orbital elements:
    2016 JP15                                                Earth MOID = 0.1246 AU
    Epoch 2020 Dec. 17.0 TT = JDT 2459200.5                 Veres
    M   9.94152              (2000.0)            P               Q
    n   1.16659062     Peri.  333.95396     +0.78317824     -0.50856091
    a   0.8936972      Node    61.29277     +0.61755323     +0.56907008
    e   0.5070599      Incl.   24.07330     +0.07252484     +0.64616178
    P   0.84           H   21.1           G   0.15           U   4
    Residuals in seconds of arc
    150603 F51  0.0   0.3-    160505 691  0.6-  1.6-    160522 705  0.0   0.1-
    160402 F51  0.1+  0.1+    160505 104  0.4+  0.5+    160522 705  0.1+  0.1+
    160402 F51  0.0   0.1-    160505 104  0.3+  0.3+    160522 705  0.1+  0.0
    160402 F51  0.1+  0.0     160505 104  1.1-  0.0     160530 H21  0.1+  0.1-
    160402 F51  0.1-  0.1-    160506 I52  0.7+  0.8-    160530 H21  0.3-  0.1+
    160402 F51  0.3-  0.2-    160506 I52  1.2-  0.1-    160530 H21  0.0   0.1+
    160402 F51  0.1+  0.1-    160506 I52  0.4+  0.1-    160531 691  0.1-  0.2-
    160402 F51  0.0   0.0     160506 H21  0.2-  0.3+    160531 691  0.0   0.0
    160504 G96  0.3+  0.5+    160506 H21  0.2-  0.2+    160531 691  0.8+  0.8-
    160504 G96  0.9+  0.4+    160506 H21  0.2+  0.3+    160531 I52  1.2-  0.1-
    160504 G96  0.2+  0.6+    160507 246  0.8-  0.6-    160531 I52  0.2-  0.3+
    160504 G96  0.2+  0.7+    160507 246  1.3-  0.3-    160531 I52  0.2-  0.0
    160504 G96  0.0   0.4+    160507 246  0.2+  0.3+    160531 I52  0.7+  0.2-
    160504 G96  0.2+  0.1-    160507 246  1.6+  2.5-    160531 I52  0.2+  0.0
    160504 G96  0.1-  0.5+    160510 I52  0.5-  0.0     160531 I52  0.1-  0.1+
    160504 G96  0.2+  0.2+    160510 I52  0.5-  0.3+    160531 I52  0.1+  0.3+
    160504 J04  0.3+  0.3+    160510 I52  0.1+  0.0     160531 I52  0.0   0.3-
    160504 J04  0.0   0.3+    160510 I52  0.1-  0.3-    160607 807  0.2-  0.0
    160504 I93  1.0+  0.0     160511 I52  0.6+  0.6+    160607 807  0.1-  0.2-
    160504 I93  0.3+  0.4-    160511 I52  0.4+  0.2+    160607 807  0.2-  0.3-
    160504 I93  0.5-  0.0     160511 I52  0.3+  0.0     160607 807  0.3+  0.1+
    160505 H01  0.1+  0.1+    160511 I52  0.3+  0.2+    160607 807  0.3+  0.3+
    160505 H01  0.1-  0.2+    160511 691  0.5-  0.6+    160608 807  0.1+  0.0
    160505 H01  0.0   0.1+    160511 691  0.4-  0.1+    210311 G96  0.4-  0.5-
    160505 H01  0.1-  0.3+    160511 691  1.0-  0.1-    210311 G96  0.3+  0.2-
    160505 I52  0.7+  0.7-    160516 H21  0.2-  0.1-    210322 V00  0.1-  0.3+
    160505 I52  0.2+  0.1-    160516 H21  0.0   0.1-    210322 V00  0.1+  0.2+
    160505 I52  0.1-  0.2+    160516 H21  0.2-  0.1+    210322 V00  0.2+  0.0
    160505 I52  0.6+  0.0     160516 705  0.1+  0.0     210322 V00  0.5+  0.1+
    160505 691  0.2-  0.2-    160516 705  0.6+  0.0
    160505 691  1.1-  1.3+    160516 705  0.2-  0.0
    
    Ephemeris:
    2016 JP15                a,e,i = 0.89, 0.51, 24                  q = 0.4405
    Date    TT    R. A. (2000) Decl.     Delta      r    Elong.  Phase     V
    2021 02 21    17 08 47.8 +21 53 36   0.5754  1.0749    82.2    65.7    22.4
    ...
    2021 03 08    17 00 54.2 +26 02 25   0.5380  1.1695    95.0    57.7    22.2
    ...
    2021 03 16    16 50 45.0 +28 36 34   0.5108  1.2113   102.3    53.4    22.0
    ...
    2021 03 22    16 39 02.4 +30 37 45   0.4895  1.2388   108.0    49.9    21.9
    2021 03 23    16 36 41.1 +30 57 56   0.4860  1.2430   109.0    49.3    21.8
    2021 03 24    16 34 12.3 +31 18 01   0.4825  1.2472   110.0    48.7    21.8
    ...
    2021 03 30    16 16 33.1 +33 13 30   0.4626  1.2704   115.8    45.0    21.7
    ...
    2021 04 07    15 45 06.9 +35 16 07   0.4410  1.2965   123.3    40.2    21.5
    ...
    2021 04 22    14 27 35.5 +35 17 08   0.4280  1.3306   132.1    34.1    21.3
    
    A. U. Tomatic                (C) Copyright 2021 MPC           M.P.E.C. 2021-F95
    


    Read MPEC 2021-F94 Read MPEC 2021-F96


    MPEC number:

    Enter an MPEC number in one of the following forms:

    • 1997-B01 (the full form)
    • J97B01 (the packed version of the full form)
    • B01 (the abbreviated form)